Regional Weather Roundup
Issued by NWS

Home | Current Version | Previous Version | Graphics & Text | Print | Product List | Glossary Off
Versions: 1 2 3 4 5 6 7 8 9 10 11 12 13 14 15 16 17 18 19 20 21 22 23 24 25 26 27 28 29 30 31 32 33 34 35 36 37 38 39 40 41 42 43 44 45 46 47 48 49 50

000
ASUS43 KTOP 231959
RWRKS

WEATHER ROUNDUP FOR KANSAS
NATIONAL WEATHER SERVICE GOODLAND KS
300 PM CDT THU MAR 23 2017

NOTE:  "FAIR" INDICATES FEW OR NO CLOUDS BELOW 12,000 FEET WITH NO
SIGNIFICANT WEATHER AND/OR OBSTRUCTIONS TO VISIBILITY.

KSZ001>006-013>018-027>032-041>047-232100-
NORTHWEST KANSAS

CITY           SKY/WX    TMP DP  RH WIND       PRES   REMARKS
GOODLAND       MOSUNNY   81  40  23 S18G25    29.58F
HAYS             N/A     77  57  50 S28G38    29.64F
HILL CITY      SUNNY     80  57  45 S25G33    29.61F
RUSSELL        MOSUNNY   78  57  48 S29G40    29.66F
$$

KSZ061>065-074>080-084>089-232100-
SOUTHWEST KANSAS

CITY           SKY/WX    TMP DP  RH WIND       PRES   REMARKS
DODGE CITY     CLOUDY    78  54  43 S30G37    29.67F HAZE
ELKHART          N/A     82  46  28 S17         N/A
GARDEN CITY    SUNNY     82  53  36 S23G37    29.64F
GREAT BEND     SUNNY     79  56  45 S31G38    29.67F
LIBERAL        SUNNY     84  55  37 S29G44    29.67F
$$

KSZ066>073-081>083-090>101-232100-
SOUTHEAST KANSAS

CITY           SKY/WX    TMP DP  RH WIND       PRES   REMARKS
CHANUTE        SUNNY     77  52  41 S23G36    29.89F
COFFEYVILLE    SUNNY     75  50  41 S21G33    29.91F
HUTCHINSON     PTSUNNY   71  58  63 S26G36    29.75F
MEDICINE LODGE   N/A     81  55  40 S20G37    29.73F
NEWTON         PTSUNNY   72  57  59 S29G40    29.79F
PARSONS        SUNNY     77  50  38 S20G30    29.91F
WICHITA INTL   MOSUNNY   74  58  57 S29G40    29.79F
WICHITA JABRA  CLOUDY    74  57  55 S28G39    29.80F
WINFIELD       SUNNY     76  56  49 S22G29    29.84F
$$

KSZ007>012-019>026-033>040-048>060-102>105-232100-
NORTHEAST KANSAS

CITY           SKY/WX    TMP DP  RH WIND       PRES   REMARKS
CONCORDIA      MOSUNNY   72  57  59 S33G41    29.72F
EMPORIA        SUNNY     74  53  48 S25G38    29.81F
LAWRENCE       SUNNY     80  53  39 SE25G37   29.81F
MANHATTAN      SUNNY     77  55  46 S22G35    29.76F
OLATHE IND     SUNNY     77  51  40 S22G36    29.85F
OLATHE EXE     SUNNY     76  51  41 S26G38    29.86F
SALINA         MOSUNNY   75  57  53 S26G40    29.74F
TOPEKA BILLARD SUNNY     79  55  43 S24G33    29.79F
TOPEKA FORBES  SUNNY     80  54  40 S25G36    29.79F
$$




USA.gov is the U.S. government's official web portal to all federal, state and local government web resources and services.